Weather History for Grinnell, IA

Change the Weather History Date:

Tuesday, April 22, 2014

  Actual Average (KMIW) Record (KMIW)
Temperature  
Mean Temperature 48 °F 51 °F  
Max Temperature 63 °F 63 °F 79 °F (2001)
Min Temperature 34 °F 40 °F 30 °F (2002)
Degree Days  
Heating Degree Days 16 14  
Month to date heating degree days 386  
Since 1 July heating degree days 6687  
Cooling Degree Days 0 0  
Month to date cooling degree days 0  
Year to date cooling degree days 0  
Moisture  
Dew Point 32 °F    
Average Humidity 52    
Maximum Humidity 87    
Minimum Humidity 28    
Precipitation  
Precipitation 0.00 in 0.13 in 1.01 in (2007)
Month to date precipitation 2.20  
Sea Level Pressure  
Sea Level Pressure 30.08 in    
Wind  
Wind Speed 12 mph (NNW)    
Max Wind Speed 18 mph    
Max Gust Speed 25 mph    
Visibility 10 miles    
Events      
T = Trace of Precipitation, MM = Missing Value Source: NWS Daily Summary

Daily Weather History Graph

Daily Weather History Graph

Search for Another Location

Airport:

Trip Planner

Search our weather history database for the weather conditions in past years. The results will help you decide how hot, cold, wet, or windy it might be!

Date:

Astronomy

Apr. 22, 2014 Rise Set
Actual Time 6:20 AM CDT 7:59 PM CDT
Civil Twilight 5:50 AM CDT 8:28 PM CDT
Nautical Twilight 5:15 AM CDT 9:04 PM CDT
Astronomical Twilight 4:37 AM CDT 9:42 PM CDT
Moon 2:15 AM CDT 12:55 PM CDT
Length of Visible Light 14h 38m
Length of Day
13h 39m
Last Quarter, 46% of the Moon is Illuminated
Apr 22
Last Quarter
Apr 29
New
May 6
First Quarter
May 14
Full
May 21
Last Quarter

Hourly Weather History & Observations

Time (CDT) Temp. Windchill Dew Point Humidity Pressure Visibility Wind Dir Wind Speed Gust Speed Precip Events Conditions
12:15 AM 45.1 °F 39.5 °F 37.4 °F 74% 30.04 in 10.0 mi NW 11.5 mph - N/A   Clear
12:35 AM 45.0 °F 39.7 °F 37.4 °F 75% 30.05 in 10.0 mi NW 10.4 mph - N/A   Clear
12:55 AM 45.5 °F 39.6 °F 37.4 °F 73% 30.05 in 10.0 mi NW 12.7 mph - N/A   Clear
1:15 AM 45.0 °F 38.9 °F 37.0 °F 74% 30.05 in 10.0 mi NW 12.7 mph - N/A   Clear
1:35 AM 44.6 °F 38.8 °F 36.5 °F 73% 30.06 in 10.0 mi NW 11.5 mph - N/A   Clear
1:55 AM 43.7 °F 37.7 °F 36.5 °F 76% 30.06 in 10.0 mi NW 11.5 mph - N/A   Clear
2:15 AM 43.0 °F 36.4 °F 35.8 °F 76% 30.06 in 10.0 mi NW 12.7 mph - N/A   Clear
2:35 AM 44.1 °F 37.1 °F 34.7 °F 70% 30.06 in 10.0 mi NNW 15.0 mph - N/A   Clear
2:55 AM 44.4 °F 37.2 °F 34.0 °F 67% 30.06 in 10.0 mi NNW 16.1 mph - N/A   Clear
3:15 AM 43.7 °F 36.0 °F 33.4 °F 67% 30.06 in 10.0 mi NNW 17.3 mph - N/A   Clear
3:35 AM 43.2 °F 35.3 °F 32.9 °F 67% 30.07 in 10.0 mi NNW 17.3 mph - N/A   Clear
3:55 AM 42.8 °F 35.1 °F 32.9 °F 68% 30.07 in 10.0 mi NNW 16.1 mph - N/A   Clear
4:15 AM 42.3 °F 33.8 °F 32.4 °F 68% 30.08 in 10.0 mi NNW 18.4 mph - N/A   Clear
4:35 AM 40.6 °F 33.0 °F 32.2 °F 72% 30.09 in 10.0 mi NNW 13.8 mph - N/A   Clear
4:55 AM 39.9 °F 32.5 °F 32.2 °F 74% 30.09 in 10.0 mi NNW 12.7 mph - N/A   Clear
5:15 AM 39.2 °F 32.5 °F 32.2 °F 76% 30.09 in 10.0 mi NNW 10.4 mph - N/A   Clear
5:35 AM 38.5 °F 32.1 °F 32.0 °F 78% 30.10 in 10.0 mi NNW 9.2 mph - N/A   Clear
5:55 AM 36.3 °F 30.1 °F 31.5 °F 83% 30.10 in 10.0 mi NNW 8.1 mph - N/A   Clear
6:15 AM 35.6 °F 31.7 °F 30.9 °F 83% 30.10 in 10.0 mi NNW 4.6 mph - N/A   Clear
6:35 AM 35.6 °F 30.7 °F 31.5 °F 85% 30.11 in 10.0 mi NNW 5.8 mph - N/A   Clear
6:55 AM 34.7 °F 29.6 °F 31.3 °F 87% 30.11 in 10.0 mi NW 5.8 mph - N/A   Clear
7:15 AM 36.1 °F 31.4 °F 32.2 °F 86% 30.11 in 10.0 mi NW 5.8 mph - N/A   Clear
7:35 AM 38.1 °F 33.7 °F 33.3 °F 83% 30.12 in 10.0 mi NNW 5.8 mph - N/A   Clear
7:55 AM 41.0 °F 35.8 °F 34.0 °F 76% 30.12 in 10.0 mi NNW 8.1 mph - N/A   Clear
8:15 AM 42.6 °F 38.4 °F 34.3 °F 73% 30.12 in 10.0 mi NNW 6.9 mph - N/A   Clear
8:35 AM 45.1 °F 40.3 °F 33.4 °F 64% 30.13 in 10.0 mi NNW 9.2 mph - N/A   Clear
8:55 AM 46.6 °F - 33.3 °F 60% 30.13 in 10.0 mi North 11.5 mph - N/A   Clear
9:15 AM 48.7 °F - 32.0 °F 52% 30.12 in 10.0 mi North 13.8 mph 18.4 mph N/A   Clear
9:35 AM 50.0 °F - 32.0 °F 50% 30.12 in 10.0 mi North 15.0 mph 19.6 mph N/A   Clear
9:55 AM 50.7 °F - 31.6 °F 48% 30.12 in 10.0 mi North 17.3 mph 23.0 mph N/A   Clear
10:15 AM 51.3 °F - 31.5 °F 47% 30.13 in 10.0 mi North 15.0 mph 18.4 mph N/A   Clear
10:35 AM 52.7 °F - 32.0 °F 45% 30.13 in 10.0 mi NNW 12.7 mph - N/A   Clear
10:55 AM 53.4 °F - 31.6 °F 44% 30.13 in 10.0 mi NNW 13.8 mph 21.9 mph N/A   Clear
11:15 AM 54.7 °F - 31.6 °F 42% 30.13 in 10.0 mi North 15.0 mph - N/A   Clear
11:35 AM 56.3 °F - 29.7 °F 36% 30.13 in 10.0 mi North 16.1 mph 20.7 mph N/A   Clear
11:55 AM 56.3 °F - 28.2 °F 34% 30.12 in 10.0 mi North 15.0 mph 21.9 mph N/A   Clear
12:15 PM 57.7 °F - 28.4 °F 33% 30.12 in 10.0 mi NNW 17.3 mph 21.9 mph N/A   Clear
12:35 PM 58.5 °F - 29.1 °F 33% 30.11 in 10.0 mi North 12.7 mph 24.2 mph N/A   Clear
12:55 PM 58.8 °F - 28.8 °F 32% 30.11 in 10.0 mi North 17.3 mph 25.3 mph N/A   Clear
1:15 PM 59.2 °F - 29.5 °F 32% 30.10 in 10.0 mi North 17.3 mph 23.0 mph N/A   Clear
1:35 PM 59.9 °F - 28.9 °F 31% 30.09 in 10.0 mi North 16.1 mph 20.7 mph N/A   Clear
1:55 PM 61.3 °F - 29.5 °F 30% 30.09 in 10.0 mi North 12.7 mph 19.6 mph N/A   Clear
2:15 PM 61.0 °F - 28.9 °F 30% 30.09 in 10.0 mi NNW 11.5 mph 23.0 mph N/A   Clear
2:35 PM 61.2 °F - 30.0 °F 31% 30.08 in 10.0 mi NNW 17.3 mph 23.0 mph N/A   Clear
2:55 PM 61.3 °F - 29.5 °F 30% 30.07 in 10.0 mi NNW 16.1 mph 21.9 mph N/A   Clear
3:15 PM 62.6 °F - 30.0 °F 29% 30.07 in 10.0 mi NNW 11.5 mph 23.0 mph N/A   Clear
3:35 PM 62.4 °F - 29.3 °F 29% 30.07 in 10.0 mi NNW 15.0 mph 21.9 mph N/A   Clear
3:55 PM 62.6 °F - 30.4 °F 30% 30.06 in 10.0 mi NNW 10.4 mph 17.3 mph N/A   Clear
4:15 PM 62.2 °F - 30.0 °F 30% 30.05 in 10.0 mi North 9.2 mph 20.7 mph N/A   Clear
4:35 PM 63.0 °F - 30.2 °F 29% 30.05 in 10.0 mi North 11.5 mph 16.1 mph N/A   Clear
4:55 PM 62.6 °F - 28.9 °F 28% 30.04 in 10.0 mi North 13.8 mph 17.3 mph N/A   Clear
5:15 PM 62.4 °F - 29.3 °F 29% 30.04 in 10.0 mi NNW 12.7 mph - N/A   Clear
5:35 PM 61.5 °F - 29.5 °F 30% 30.04 in 10.0 mi North 9.2 mph - N/A   Clear
5:55 PM 61.5 °F - 29.5 °F 30% 30.04 in 10.0 mi North 11.5 mph - N/A   Clear
6:15 PM 61.7 °F - 29.5 °F 30% 30.04 in 10.0 mi NNW 10.4 mph - N/A   Clear
6:35 PM 61.2 °F - 29.8 °F 31% 30.04 in 10.0 mi NNW 8.1 mph - N/A   Clear
6:55 PM 60.4 °F - 29.5 °F 31% 30.04 in 10.0 mi North 8.1 mph - N/A   Clear
7:15 PM 59.4 °F - 30.0 °F 33% 30.04 in 10.0 mi North 10.4 mph - N/A   Clear
7:35 PM 57.4 °F - 30.0 °F 35% 30.03 in 10.0 mi North 9.2 mph - N/A   Clear
7:55 PM 54.5 °F - 30.2 °F 39% 30.03 in 10.0 mi North 6.9 mph - N/A   Clear
8:15 PM 52.5 °F - 30.0 °F 42% 30.03 in 10.0 mi North 6.9 mph - N/A   Clear
8:35 PM 52.2 °F - 30.4 °F 43% 30.03 in 10.0 mi North 5.8 mph - N/A   Clear
9:15 PM 50.9 °F - 30.7 °F 46% 30.05 in 10.0 mi NNE 6.9 mph - N/A   Clear
9:35 PM 50.0 °F - 31.3 °F 49% 30.06 in 10.0 mi NNE 9.2 mph - N/A   Clear
9:55 PM 52.3 °F - 31.6 °F 45% 30.06 in 10.0 mi NNE 9.2 mph - N/A   Clear
10:15 PM 52.2 °F - 32.0 °F 46% 30.06 in 10.0 mi NE 6.9 mph - N/A   Clear
10:35 PM 52.7 °F - 32.0 °F 45% 30.07 in 10.0 mi NNE 8.1 mph - N/A   Scattered Clouds
10:55 PM 52.2 °F - 32.0 °F 46% 30.06 in 10.0 mi NE 9.2 mph - N/A   Mostly Cloudy
11:15 PM 50.5 °F - 32.2 °F 49% 30.06 in 10.0 mi NE 8.1 mph - N/A   Mostly Cloudy
11:35 PM 50.0 °F - 32.4 °F 51% 30.06 in 10.0 mi NE 8.1 mph - N/A   Scattered Clouds
11:55 PM 49.6 °F - 32.9 °F 53% 30.06 in 10.0 mi NE 6.9 mph - N/A   Mostly Cloudy